Regional Weather Roundup
Issued by NWS

Home | Current Version | Previous Version | Graphics & Text | Print | Product List | Glossary On
Versions: 1 2 3 4 5 6 7 8 9 10 11 12 13 14 15 16 17 18 19 20 21 22 23 24 25 26 27 28 29 30 31 32 33 34 35 36 37 38 39 40 41 42 43 44 45 46 47 48 49 50
000
ASUS43 KMPX 271410
RWRMN
WEATHER ROUNDUP FOR MINNESOTA
NATIONAL WEATHER SERVICE TWIN CITIES/CHANHASSEN MN
900 AM CDT WED AUG 27 2014


NOTE: "FAIR" INDICATES FEW OR NO CLOUDS BELOW 12,000 FEET WITH NO
SIGNIFICANT WEATHER AND/OR OBSTRUCTIONS TO VISIBILITY. N/A MEANS
CURRENT SKY AND/OR WEATHER CONDITIONS ARE NOT AVAILABLE.

MNZ060>063-068>070-271500-
   Twin Cities Metro

CITY           SKY/WX    TMP DP  RH WIND       PRES   REMARKS
TWIN CITIES    MOSUNNY   65  55  70 E8        30.21R
ST PAUL        MOSUNNY   64  53  67 E5        30.22R
CRYSTAL        SUNNY     64  54  69 E5        30.20S
BLAINE         MOSUNNY   64  57  77 E8        30.21S
LAKEVILLE      MOSUNNY   63  55  77 E8        30.22R
EDEN PRAIRIE   SUNNY     65  56  72 E7        30.20R
SOUTH ST PAUL  MOSUNNY   64  52  65 NE3       30.21R
LAKE ELMO      FAIR      63  55  77 E3        30.23R
$$
MNZ001>005-007-008-013>017-022>024-027-028-271500-
   Northwest Minnesota

CITY           SKY/WX    TMP DP  RH WIND       PRES   REMARKS
BEMIDJI        SUNNY     55  54  94 W3        30.21R
HALLOCK        MOSUNNY   52  52 100 SE3       30.16F
ROSEAU         HAZE      50  45  81 CALM      30.18S VSB<1/4
WARROAD        FOG       48  46  93 SW5       30.19R VSB 1/4
THIEF RVR FALL SUNNY     55  54  94 SW6       30.19S
CROOKSTON      SUNNY     55  54  94 SW6       30.20S
FOSSTON        MOSUNNY   54  54 100 S3        30.21R FOG
DETROIT LAKES  SUNNY     61  55  82 CALM      30.21S
MOORHEAD       MOSUNNY   61  61 100 CALM      30.20S
PARK RAPIDS    CLOUDY    56  55  97 CALM      30.21R FOG
MAHNOMEN       FOG       54  54 100 CALM      30.21S VSB 1/4
$$
MNZ006-009>011-018-025>026-271500-
   North Central Minnesota

CITY           SKY/WX    TMP DP  RH WIND       PRES   REMARKS
BAUDETTE       MOSUNNY   53  51  93 SW6       30.18S
FLAG ISLAND    SUNNY     59  54  82 NW3       30.16S
INTL FALLS     SUNNY     53  49  86 CALM      30.19S
WASKISH        SUNNY     57  55  94 CALM      30.19S
BIG FORK       SUNNY     55  54  94 CALM      30.21S
LONGVILLE      SUNNY     57  57 100 CALM      30.20S
GRAND RAPIDS   SUNNY     54  52  94 SE3       30.21S
CRANE LAKE     SUNNY     50  46  87 CALM      30.22S
ORR            SUNNY     52  48  87 CALM      30.19S
COOK           SUNNY     50  50 100 CALM      30.22R
WALKER         PTSUNNY   56  55  95 SW5       30.21R
$$
MNZ012-019>021-037-271500-
   Northeast Minnesota

CITY           SKY/WX    TMP DP  RH WIND       PRES   REMARKS
DULUTH         SUNNY     58  49  72 N6        30.21R
ELY            SUNNY     54  48  82 CALM      30.21S
HIBBING        SUNNY     57  50  77 CALM      30.22R
EVELETH        SUNNY    N/A N/A N/A CALM      30.22S
DULUTH HARBOR  SUNNY     61  54  77 CALM      30.22S
TWO HARBORS    SUNNY     55  48  76 CALM      30.20S
SILVER BAY     SUNNY     57  54  88 NW3       30.19S
GRAND MARAIS     N/A     63  50  62 NW6       30.18S
G MARAIS ARPRT SUNNY     55  46  71 NW3       30.20S
$$
MNZ029>031-032-039>041-046>048-054>057-064-271500-
   West Central Minnesota

CITY           SKY/WX    TMP DP  RH WIND       PRES   REMARKS
FERGUS FALLS   SUNNY     63  55  77 S3        30.20S
WHEATON        SUNNY     57  57 100 SE7       30.21R
MORRIS         SUNNY     63  59  88 E6        30.19S
ALEXANDRIA     SUNNY     61  56  83 SE8       30.22S
ELBOW LAKE     FAIR      61  57  87 SE6       30.19S
WADENA         SUNNY     61  57  88 CALM      30.20S
GLENWOOD       SUNNY     61  55  82 E7        30.21S
APPLETON       SUNNY     63  59  88 SE6       30.19S
BENSON         SUNNY     63  59  88 S6        30.20R
ORTONVILLE     SUNNY     63  57  82 SE6       30.19S
MADISON        SUNNY     64  61  88 E3        30.19S
WILLMAR        FAIR      64  57  77 E7        30.22R
$$
MNZ033>034-036-042>043-049>051-058-059-271500-
   Central Minnesota

CITY           SKY/WX    TMP DP  RH WIND       PRES   REMARKS
ST CLOUD       SUNNY     62  55  77 SE5       30.21S
SAUK CENTRE    FAIR      60  56  86 E6        30.21S
PAYNESVILLE    SUNNY     59  53  80 NE6       30.21S
AITKIN         SUNNY     63  55  77 CALM      30.20R
PINE RIVER     SUNNY     57  57 100 CALM      30.24R
BRAINERD       MOSUNNY   60  56  86 CALM      30.22R
STAPLES        SUNNY     59  55  88 CALM      30.21S
LONG PRAIRIE   FAIR      59  55  88 CALM      30.22R
LITTLE FALLS   CLOUDY    57  55  94 S5        30.22R
LITCHFIELD     SUNNY     64  61  88 E9        30.22R
BUFFALO        SUNNY     63  53  70 E5        30.22R
MAPLE LAKE     SUNNY     64  58  81 E6        30.22S
$$
MNZ037-044-045-052-053-271500-
   East Central Minnesota

CITY           SKY/WX    TMP DP  RH WIND       PRES   REMARKS
PRINCETON      MOSUNNY   61  55  82 E5        30.22R
MORA           MOSUNNY   59  54  82 CALM      30.24R
CAMBRIDGE      SUNNY     64  52  63 CALM      30.21R
RUSH CITY      CLOUDY    59  55  85 CALM      30.23R
MOOSE LAKE     SUNNY     59  52  77 CALM      30.20S
HINCKLEY       FAIR      59  54  82 CALM      30.22S
CLOQUET        SUNNY     57  48  72 CALM      30.22R
MCGREGOR       SUNNY     55  54  94 CALM      30.22S
$$
MNZ071>073-080-081-089-090-097-098-271500-
   Southwest Minnesota

CITY           SKY/WX    TMP DP  RH WIND       PRES   REMARKS
MONTEVIDEO     SUNNY     64  61  88 SE7       30.19F
GRANITE FALLS  SUNNY     63  58  82 E7        30.20F
CANBY          MOSUNNY   58  57  97 CALM      30.20R
MARSHALL       MOSUNNY   61  55  82 SE8       30.19R
REDWOOD FALLS  SUNNY     64  56  75 E8        30.19R
OLIVIA         SUNNY     64  55  72 SE9       30.19S
PIPESTONE      CLOUDY    61  55  82 SE5       30.20R
WINDOM         PTSUNNY   66  59  77 E5        30.21R
WORTHINGTON    CLOUDY    61  57  88 SE5       30.22R
JACKSON        CLOUDY    63  55  77 E5        30.21R
TRACY          PTSUNNY   63  59  89 CALM      30.21R
SLAYTON        CLOUDY    60  58  93 CALM      30.21R
$$
MNZ065>067-074>077-082>085-091>093-271500-
   South Central Minnesota

CITY           SKY/WX    TMP DP  RH WIND       PRES   REMARKS
MANKATO        PTSUNNY   64  54  68 E9        30.20S
NEW ULM        MOSUNNY   63  59  88 E8        30.20R
ST JAMES       PTSUNNY   66  61  82 E5        30.20S
FAIRMONT       CLOUDY    61  55  82 CALM      30.20S
GLENCOE        SUNNY     65  55  69 E9        30.20S
FARIBAULT      CLOUDY    66  54  63 E6        30.21S
OWATONNA       CLOUDY    64  55  72 E8        30.21S
WASECA         CLOUDY    61  52  72 E8        30.23R
ALBERT LEA     CLOUDY    64  57  77 SE5       30.21R
$$
MNZ078>079-086>088-094>096-271500-
   Southeast Minnesota

CITY           SKY/WX    TMP DP  RH WIND       PRES   REMARKS
ROCHESTER      PTSUNNY   65  57  75 NE7       30.22R
RED WING       MOSUNNY   66  55  68 SE7       30.20R
STANTON        SUNNY     64  57  76 E6        30.20R
DODGE CENTER   PTSUNNY   63  57  82 E6        30.22R
WINONA         PTSUNNY   68  59  73 NE5       30.21S
AUSTIN         CLOUDY    63  57  82 CALM      30.21R
PRESTON        CLOUDY    63  60  91 CALM      30.21S
$$
ABBREVIATIONS USED IN REMARKS
   TC - TEMPERATURES IN CELSIUS
  WCI - WIND CHILL INDEX
   HX - HEAT INDEX
  VSB - VISIBILITY
$$



USA.gov is the U.S. government's official web portal to all federal, state and local government web resources and services.